星链-30487 (STARLINK-30487 )

导读 | 星芒AI

STARLINK-30487 是 SpaceX 星链计划中的一颗低轨通信卫星,属于第 11 批星链卫星(Batch 11)。该卫星于 2023 年 9 月 21 日由猎鹰 9 号火箭从美国佛罗里达州肯尼迪航天中心发射升空,部署在约 550 公里的轨道高度,用于提供全球宽带互联网服务。作为星链星座的一部分,STARLINK-30487 采用先进推进系统和激光通信技术,旨在提升网络性能与连接稳定性,支持偏远地区的高速互联网接入。

基本信息
目录编号:
57924
目录名称:
STARLINK-30487
国际标识:
2023-147M
轨道中心:
EARTH
卫星名称:
星链-30487
卫星全名:
星链-30487 (STARLINK-30487 )
卫星状态:
在轨 (已飞行767 天)
发射日期:
2023-09-24 UTC
国别 :
美国 (US)
星等 :
--
轨道信息
数据来源 国际轨道数据
星历时间: 2025-10-30T08:23:49+0800
22小时前
查看轨道信息
半长轴: 6937.212km
偏心率: 0.0001022
轨道倾角: 43.002°
近地点辐角 275.249°
升交点赤经 315.881°
平近点角 84.824°
近地点: 558.368km
远地点: 559.786km
周期: 95.838分钟
每日圈数: 15.025375
详细信息
固有亮度:
5
最大亮度:
0.3
卫星平台:
Starlink v2.0 mini
覆盖范围:
全球
运营商:
太空探索技术公司
运营商所在国:
美国
制造商(研发单位):
太空探索技术公司
制造商所在国:
美国
使用方式:
暂无
卫星简介
星链(Starlink)计划是由太空探索技术公司(SpaceX)提出的一个巨型低轨卫星互联网星座项目,计划在2019年至2024年间在太空搭建由约1.2万颗卫星组成的“星链”网络,其中1584颗将部署在地球上空550千米处的近地轨道,并从2020年开始工作。该卫星仍在工作。
2D轨道图
3D轨道图
轨道高度分析图
轨道倾角分析图
轨道综合分析图
查看轨道综合分析图